This is the latest recevied weather packets stored in our database for station/object DG0LHZ-10. If no packets are shown the sender has not sent any weather packets the latest 10 day(s).
| Time | Temp. | Humidity | Pressure | Rain* | Wind** | Luminosity | Snow |
|---|---|---|---|---|---|---|---|
| 1788344910 | 23.33° C | 50% | 1022.7 hPa | - | - | - | - |
| 1788344010 | 22.78° C | 51% | 1022.7 hPa | - | - | - | - |
| 1788343110 | 22.22° C | 51% | 1022.9 hPa | - | - | - | - |
| 1788342210 | 21.67° C | 51% | 1023 hPa | - | - | - | - |
| 1788341310 | 21.11° C | 51% | 1023 hPa | - | - | - | - |
| 1788340410 | 21.11° C | 52% | 1022.9 hPa | - | - | - | - |
| 1788339509 | 20.56° C | 52% | 1023 hPa | - | - | - | - |
| 1788338609 | 20° C | 52% | 1023 hPa | - | - | - | - |
| 1788337709 | 19.44° C | 52% | 1023.1 hPa | - | - | - | - |
| 1788336809 | 18.89° C | 53% | 1023.1 hPa | - | - | - | - |
| 1788335909 | 18.89° C | 53% | 1023.1 hPa | - | - | - | - |
| 1788335009 | 18.33° C | 53% | 1022.9 hPa | - | - | - | - |
| 1788334109 | 17.78° C | 54% | 1022.8 hPa | - | - | - | - |
| 1788333209 | 16.67° C | 54% | 1022.8 hPa | - | - | - | - |
| 1788332309 | 16.11° C | 55% | 1022.7 hPa | - | - | - | - |
| 1788331409 | 16.11° C | 55% | 1022.8 hPa | - | - | - | - |
| 1788330509 | 15.56° C | 56% | 1022.8 hPa | - | - | - | - |
| 1788329609 | 15.56° C | 56% | 1023 hPa | - | - | - | - |
| 1788328709 | 15.56° C | 55% | 1022.9 hPa | - | - | - | - |
| 1788327809 | 15.56° C | 55% | 1022.9 hPa | - | - | - | - |
| 1788326908 | 15° C | 55% | 1022.9 hPa | - | - | - | - |
| 1788326008 | 15.56° C | 55% | 1022.9 hPa | - | - | - | - |
| 1788325108 | 15.56° C | 55% | 1022.8 hPa | - | - | - | - |
| 1788324208 | 15.56° C | 54% | 1022.9 hPa | - | - | - | - |
| 1788323308 | 15.56° C | 55% | 1022.8 hPa | - | - | - | - |
* Rain since midnight (hover to see other rain measurements)
** Current wind speed in m/s (hover to see current wind gust speed)